Decorah, Iowa, United States (52101)
Lat: 43.30N, Lon: 91.79W
Wx Zone: IAZ010
Local Info
Past Weather Observations for Today

NOTE: This archive is for the closest National Weather Service station to Decorah. Information may differ from the station used for current weather conditions.

Click here for Long-term Archive

Time Weather Temperature Dewpoint Humidity Pressure Winds Precip Visibility
11:55
Mostly Cloudy
70°F / 21°C 50°F / 10°C 50% 30.18 in
(1022 mb)
Variable 6.9 mph
(Variable 11 kph)
- 10SM
11:35
Partly Cloudy
70°F / 21°C 52°F / 11°C 53% 30.18 in
(1022 mb)
Variable 6.9 mph
(Variable 11 kph)
- 10SM
11:15
Partly Cloudy
70°F / 21°C 52°F / 11°C 53% 30.18 in
(1022 mb)
N 6.9 mph
(N 11 kph)
- 10SM
10:55
Partly Cloudy
70°F / 21°C 54°F / 12°C 57% 30.18 in
(1022 mb)
N 8.1 mph
(N 13 kph)
- 10SM
10:35
Mostly Cloudy
68°F / 20°C 54°F / 12°C 60% 30.18 in
(1022 mb)
N 8.1 mph
(N 13 kph)
- 10SM
10:15
Partly Cloudy
68°F / 20°C 54°F / 12°C 60% 30.18 in
(1022 mb)
N 9.2 mph
(N 15 kph)
- 10SM
09:55
Partly Cloudy
68°F / 20°C 54°F / 12°C 60% 30.18 in
(1022 mb)
Variable 6.9 mph
(Variable 11 kph)
- 10SM
09:35
Mostly Cloudy
68°F / 20°C 55°F / 13°C 64% 30.18 in
(1022 mb)
NW 9.2 mph
(NW 15 kph)
- 10SM
09:15
Mostly Cloudy
66°F / 19°C 55°F / 13°C 68% 30.18 in
(1022 mb)
NNW 8.1 mph
(NNW 13 kph)
- 10SM
08:55
Overcast
66°F / 19°C 55°F / 13°C 68% 30.18 in
(1022 mb)
Variable 6.9 mph
(Variable 11 kph)
- 10SM
08:35
Overcast
64°F / 18°C 55°F / 13°C 73% 30.18 in
(1022 mb)
NW 6.9 mph
(NW 11 kph)
- 10SM
08:15
Overcast
64°F / 18°C 57°F / 14°C 78% 30.18 in
(1022 mb)
NNW 9.2 mph
(NNW 15 kph)
- 10SM
07:55
Overcast
64°F / 18°C 57°F / 14°C 78% 30.18 in
(1022 mb)
Variable 5.8 mph
(Variable 9 kph)
- 10SM
07:35
Overcast
63°F / 17°C 55°F / 13°C 77% 30.18 in
(1022 mb)
N 5.8 mph
(N 9 kph)
- 10SM
07:15
Overcast
61°F / 16°C 55°F / 13°C 83% 30.18 in
(1022 mb)
Variable 3.5 mph
(Variable 6 kph)
- 10SM
06:55
Mostly Cloudy
59°F / 15°C 55°F / 13°C 88% 30.18 in
(1022 mb)
N 5.8 mph
(N 9 kph)
- 10SM
06:35
Partly Cloudy
59°F / 15°C 54°F / 12°C 82% 30.18 in
(1022 mb)
N 5.8 mph
(N 9 kph)
- 10SM
06:15
Partly Cloudy
57°F / 14°C 54°F / 12°C 88% 30.15 in
(1021 mb)
N 6.9 mph
(N 11 kph)
- 10SM
05:55
Partly Cloudy
55°F / 13°C 54°F / 12°C 94% 30.15 in
(1021 mb)
N 5.8 mph
(N 9 kph)
- 10SM
05:35
Overcast
55°F / 13°C 54°F / 12°C 94% 30.15 in
(1021 mb)
WNW 3.5 mph
(WNW 6 kph)
- 10SM
05:15
Mostly Cloudy
55°F / 13°C 52°F / 11°C 88% 30.15 in
(1021 mb)
Calm - 10SM
04:55
Clear
54°F / 12°C 52°F / 11°C 94% 30.15 in
(1021 mb)
NNW 4.6 mph
(NNW 7 kph)
- 10SM
04:35
Clear
55°F / 13°C 52°F / 11°C 88% 30.15 in
(1021 mb)
NNW 6.9 mph
(NNW 11 kph)
- 10SM
04:15
Clear
55°F / 13°C 52°F / 11°C 88% 30.15 in
(1021 mb)
NNW 6.9 mph
(NNW 11 kph)
- 10SM
03:55
Partly Cloudy
55°F / 13°C 52°F / 11°C 88% 30.15 in
(1021 mb)
N 5.8 mph
(N 9 kph)
- 10SM
03:35
Partly Cloudy
55°F / 13°C 52°F / 11°C 88% 30.12 in
(1020 mb)
N 5.8 mph
(N 9 kph)
- 10SM
03:15
Clear
55°F / 13°C 52°F / 11°C 88% 30.12 in
(1020 mb)
N 6.9 mph
(N 11 kph)
- 10SM
02:55
Clear
55°F / 13°C 54°F / 12°C 94% 30.12 in
(1020 mb)
N 5.8 mph
(N 9 kph)
- 10SM
02:35
Clear
55°F / 13°C 54°F / 12°C 94% 30.12 in
(1020 mb)
N 6.9 mph
(N 11 kph)
- 10SM
02:15
Partly Cloudy
57°F / 14°C 54°F / 12°C 88% 30.12 in
(1020 mb)
N 6.9 mph
(N 11 kph)
- 10SM
01:55
Partly Cloudy
57°F / 14°C 54°F / 12°C 88% 30.12 in
(1020 mb)
NNW 6.9 mph
(NNW 11 kph)
- 10SM
01:35
Partly Cloudy
57°F / 14°C 54°F / 12°C 88% 30.12 in
(1020 mb)
NNW 5.8 mph
(NNW 9 kph)
- 10SM
01:15
Mostly Cloudy
57°F / 14°C 54°F / 12°C 88% 30.09 in
(1019 mb)
NNW 6.9 mph
(NNW 11 kph)
- 10SM
00:55
Mostly Cloudy
57°F / 14°C 54°F / 12°C 88% 30.09 in
(1019 mb)
N 6.9 mph
(N 11 kph)
- 10SM
00:35
Partly Cloudy
59°F / 15°C 54°F / 12°C 82% 30.09 in
(1019 mb)
N 6.9 mph
(N 11 kph)
- 10SM
00:15
Clear
59°F / 15°C 55°F / 13°C 88% 30.09 in
(1019 mb)
N 6.9 mph
(N 11 kph)
- 10SM
Time Weather Temperature Dewpoint Humidity Pressure Winds Precip Visibility


Weather for websites

WeatherForYou.com, LLC is not responsible for any damages or problems caused by this service. Current weather conditions are obtained from the closest station including government and personal stations which may have varying degrees of accuracy. Weather forecasts are derived from the NOAA NDFD. Like all things, this site belongs to Jesus Christ... He just trusts me to maintain it. If you have any questions or comments email webmaster@weatherforyou.com

Copyright © 2014, WeatherForYou.com LLC. All rights reserved.